Time,TemperatureF,DewpointF,PressureIn,WindDirection,WindDirectionDegrees,WindSpeedMPH,WindSpeedGustMPH,Humidity,HourlyPrecipIn,Conditions,Clouds,dailyrainin,SoftwareType,DateUTC
2013-04-13 00:05:00,69.0,-99.9,29.98,SW,215,7.0,9.0,-999,-99.99,,,-99.99,,2013-04-13 10:05:00,
2013-04-13 00:16:00,69.0,-99.9,29.98,SSW,205,6.0,7.0,-999,-99.99,,,-99.99,,2013-04-13 10:16:00,
2013-04-13 00:25:00,69.0,-99.9,29.97,SSW,200,6.0,7.0,-999,-99.99,,,-99.99,,2013-04-13 10:25:00,
2013-04-13 00:51:00,69.0,-99.9,29.97,SSW,206,5.0,7.0,-999,-99.99,,,-99.99,,2013-04-13 10:51:00,
2013-04-13 01:08:00,-999.0,-99.9,29.96,SSW,195,6.0,8.0,-999,-99.99,,,-99.99,,2013-04-13 11:08:00,
2013-04-13 01:14:00,-999.0,-99.9,29.96,SSW,205,6.0,7.0,-999,-99.99,,,-99.99,,2013-04-13 11:14:00,
2013-04-13 01:24:00,68.0,-99.9,29.96,SSW,206,6.0,7.0,-999,-99.99,,,-99.99,,2013-04-13 11:24:00,
2013-04-13 01:35:00,-999.0,-99.9,29.96,SSW,193,6.0,7.0,-999,-99.99,,,-99.99,,2013-04-13 11:35:00,
2013-04-13 01:47:00,-999.0,-99.9,29.96,South,189,6.0,8.0,-999,-99.99,,,-99.99,,2013-04-13 11:47:00,
2013-04-13 01:54:00,-999.0,-99.9,29.95,South,189,8.0,9.0,-999,-99.99,,,-99.99,,2013-04-13 11:54:00,
2013-04-13 02:09:00,-999.0,-99.9,29.95,SSW,194,7.0,10.0,-999,-99.99,,,-99.99,,2013-04-13 12:09:00,
2013-04-13 02:17:00,-999.0,-99.9,29.95,SSW,193,6.0,8.0,-999,-99.99,,,-99.99,,2013-04-13 12:17:00,
2013-04-13 02:25:00,-999.0,-99.9,29.95,SSW,205,8.0,9.0,-999,-99.99,,,-99.99,,2013-04-13 12:25:00,
2013-04-13 02:37:00,-999.0,-99.9,29.95,SSW,201,6.0,9.0,-999,-99.99,,,-99.99,,2013-04-13 12:37:00,
2013-04-13 02:49:00,-999.0,-99.9,29.95,SSW,205,6.0,8.0,-999,-99.99,,,-99.99,,2013-04-13 12:49:00,
2013-04-13 02:57:00,-999.0,-99.9,29.95,SSW,204,6.0,8.0,-999,-99.99,,,-99.99,,2013-04-13 12:57:00,
2013-04-13 03:16:00,-999.0,-99.9,29.94,South,190,6.0,8.0,-999,-99.99,,,-99.99,,2013-04-13 13:16:00,
2013-04-13 03:31:00,-999.0,-99.9,29.94,SSW,192,6.0,7.0,-999,-99.99,,,-99.99,,2013-04-13 13:31:00,
2013-04-13 03:37:00,-999.0,-99.9,29.94,SSW,194,6.0,7.0,-999,-99.99,,,-99.99,,2013-04-13 13:37:00,
2013-04-13 03:49:00,-999.0,-99.9,29.95,SSW,192,6.0,7.0,-999,-99.99,,,-99.99,,2013-04-13 13:49:00,
2013-04-13 03:58:00,-999.0,-99.9,29.95,SSW,196,5.0,6.0,-999,-99.99,,,-99.99,,2013-04-13 13:58:00,
2013-04-13 04:05:00,-999.0,-99.9,29.95,South,189,5.0,7.0,-999,-99.99,,,-99.99,,2013-04-13 14:05:00,
2013-04-13 04:15:00,-999.0,-99.9,29.94,SSW,194,5.0,7.0,-999,-99.99,,,-99.99,,2013-04-13 14:15:00,
2013-04-13 04:24:00,-999.0,-99.9,29.94,SSW,198,6.0,7.0,-999,-99.99,,,-99.99,,2013-04-13 14:24:00,
2013-04-13 04:39:00,-999.0,-99.9,29.94,South,188,5.0,7.0,-999,-99.99,,,-99.99,,2013-04-13 14:39:00,
2013-04-13 04:48:00,-999.0,-99.9,29.95,SSW,205,7.0,9.0,-999,-99.99,,,-99.99,,2013-04-13 14:48:00,
2013-04-13 05:00:00,-999.0,-99.9,29.95,SSW,197,6.0,8.0,-999,-99.99,,,-99.99,,2013-04-13 15:00:00,
2013-04-13 05:06:00,-999.0,-99.9,29.95,SSW,194,6.0,8.0,-999,-99.99,,,-99.99,,2013-04-13 15:06:00,
2013-04-13 05:15:00,66.0,-99.9,29.96,SSW,192,6.0,8.0,-999,-99.99,,,-99.99,,2013-04-13 15:15:00,
2013-04-13 05:38:00,66.0,-99.9,29.96,SSW,197,6.0,8.0,-999,-99.99,,,-99.99,,2013-04-13 15:38:00,
2013-04-13 05:45:00,66.0,-99.9,29.96,SSW,195,7.0,8.0,-999,-99.99,,,-99.99,,2013-04-13 15:45:00,
2013-04-13 05:59:00,66.0,-99.9,29.96,SSW,199,8.0,9.0,-999,-99.99,,,-99.99,,2013-04-13 15:59:00,
2013-04-13 06:08:00,66.0,-99.9,29.96,SSW,197,8.0,9.0,-999,-99.99,,,-99.99,,2013-04-13 16:08:00,
2013-04-13 06:25:00,66.0,-99.9,29.97,SSW,195,7.0,9.0,-999,-99.99,,,-99.99,,2013-04-13 16:25:00,
2013-04-13 06:37:00,66.0,-99.9,29.97,SSW,201,8.0,10.0,-999,-99.99,,,-99.99,,2013-04-13 16:37:00,
2013-04-13 06:48:00,66.0,-99.9,29.98,SSW,193,6.0,9.0,-999,-99.99,,,-99.99,,2013-04-13 16:48:00,
2013-04-13 06:59:00,66.0,-99.9,29.98,South,186,7.0,9.0,-999,-99.99,,,-99.99,,2013-04-13 16:59:00,
2013-04-13 07:08:00,67.0,-99.9,29.98,South,188,7.0,8.0,-999,-99.99,,,-99.99,,2013-04-13 17:08:00,
2013-04-13 07:23:00,67.0,-99.9,29.98,SSW,195,7.0,9.0,-999,-99.99,,,-99.99,,2013-04-13 17:23:00,
2013-04-13 07:39:00,69.0,-99.9,29.98,SSW,193,6.0,7.0,-999,-99.99,,,-99.99,,2013-04-13 17:39:00,
2013-04-13 07:45:00,70.0,-99.9,29.99,South,187,3.0,5.0,-999,-99.99,,,-99.99,,2013-04-13 17:45:00,
2013-04-13 08:04:00,70.0,-99.9,29.99,SSW,198,5.0,7.0,-999,-99.99,,,-99.99,,2013-04-13 18:04:00,
2013-04-13 08:16:00,72.0,-99.9,29.99,SSW,194,4.0,5.0,-999,-99.99,,,-99.99,,2013-04-13 18:16:00,
2013-04-13 08:25:00,74.0,-99.9,29.99,SSW,201,2.0,5.0,-999,-99.99,,,-99.99,,2013-04-13 18:25:00,
2013-04-13 08:33:00,76.0,-99.9,29.99,SSE,160,3.0,7.0,-999,-99.99,,,-99.99,,2013-04-13 18:33:00,
2013-04-13 08:42:00,77.0,-99.9,29.99,South,184,6.0,8.0,-999,-99.99,,,-99.99,,2013-04-13 18:42:00,
2013-04-13 08:53:00,79.0,-99.9,29.99,South,169,6.0,10.0,-999,-99.99,,,-99.99,,2013-04-13 18:53:00,
2013-04-13 09:03:00,81.0,-99.9,29.99,SE,137,7.0,10.0,-999,-99.99,,,-99.99,,2013-04-13 19:03:00,
2013-04-13 09:12:00,81.0,-99.9,29.99,SSE,157,7.0,12.0,-999,-99.99,,,-99.99,,2013-04-13 19:12:00,
2013-04-13 09:23:00,81.0,-99.9,29.99,SSE,154,6.0,13.0,-999,-99.99,,,-99.99,,2013-04-13 19:23:00,
2013-04-13 09:33:00,-999.0,-99.9,29.99,SE,139,6.0,13.0,-999,-99.99,,,-99.99,,2013-04-13 19:33:00,
2013-04-13 09:42:00,-999.0,-99.9,29.98,SE,140,9.0,13.0,-999,-99.99,,,-99.99,,2013-04-13 19:42:00,
2013-04-13 09:53:00,-999.0,-99.9,29.98,SSE,154,9.0,14.0,-999,-99.99,,,-99.99,,2013-04-13 19:53:00,
2013-04-13 10:02:00,-999.0,-99.9,29.97,SSE,149,9.0,13.0,-999,-99.99,,,-99.99,,2013-04-13 20:02:00,
2013-04-13 10:13:00,-999.0,-99.9,29.97,SSE,155,8.0,15.0,-999,-99.99,,,-99.99,,2013-04-13 20:13:00,
2013-04-13 10:22:00,-999.0,-99.9,29.97,SSE,149,10.0,13.0,-999,-99.99,,,-99.99,,2013-04-13 20:22:00,
2013-04-13 10:32:00,-999.0,-99.9,29.97,ESE,117,11.0,15.0,-999,-99.99,,,-99.99,,2013-04-13 20:32:00,
2013-04-13 10:42:00,-999.0,-99.9,29.96,ESE,113,10.0,15.0,-999,-99.99,,,-99.99,,2013-04-13 20:42:00,
2013-04-13 10:53:00,-999.0,-99.9,29.96,ESE,123,10.0,14.0,-999,-99.99,,,-99.99,,2013-04-13 20:53:00,
2013-04-13 11:02:00,-999.0,-99.9,29.95,ESE,115,11.0,16.0,-999,-99.99,,,-99.99,,2013-04-13 21:02:00,
2013-04-13 11:12:00,-999.0,-99.9,29.95,SE,130,13.0,17.0,-999,-99.99,,,-99.99,,2013-04-13 21:12:00,
2013-04-13 11:22:00,-999.0,-99.9,29.94,ESE,108,14.0,20.0,-999,-99.99,,,-99.99,,2013-04-13 21:22:00,
2013-04-13 11:33:00,-999.0,-99.9,29.94,SE,139,14.0,19.0,-999,-99.99,,,-99.99,,2013-04-13 21:33:00,
2013-04-13 11:43:00,-999.0,-99.9,29.93,SE,136,14.0,18.0,-999,-99.99,,,-99.99,,2013-04-13 21:43:00,
2013-04-13 11:53:00,-999.0,-99.9,29.93,ESE,109,12.0,21.0,-999,-99.99,,,-99.99,,2013-04-13 21:53:00,
2013-04-13 12:03:00,-999.0,-99.9,29.93,ESE,107,15.0,19.0,-999,-99.99,,,-99.99,,2013-04-13 22:03:00,
2013-04-13 12:13:00,-999.0,-99.9,29.92,SE,125,13.0,18.0,-999,-99.99,,,-99.99,,2013-04-13 22:13:00,
2013-04-13 12:23:00,-999.0,-99.9,29.92,ESE,111,12.0,22.0,-999,-99.99,,,-99.99,,2013-04-13 22:23:00,
2013-04-13 12:33:00,-999.0,-99.9,29.91,ESE,118,17.0,23.0,-999,-99.99,,,-99.99,,2013-04-13 22:33:00,
2013-04-13 12:42:00,-999.0,-99.9,29.91,ESE,114,13.0,22.0,-999,-99.99,,,-99.99,,2013-04-13 22:42:00,
2013-04-13 12:53:00,-999.0,-99.9,29.91,ESE,103,17.0,23.0,-999,-99.99,,,-99.99,,2013-04-13 22:53:00,
2013-04-13 13:02:00,87.0,-99.9,29.91,ESE,114,18.0,22.0,-999,-99.99,,,-99.99,,2013-04-13 23:02:00,
2013-04-13 13:12:00,87.0,-99.9,29.91,ESE,121,15.0,21.0,-999,-99.99,,,-99.99,,2013-04-13 23:12:00,
2013-04-13 13:22:00,-999.0,-99.9,29.91,SE,125,15.0,23.0,-999,-99.99,,,-99.99,,2013-04-13 23:22:00,
2013-04-13 13:33:00,-999.0,-99.9,29.91,ESE,103,17.0,23.0,-999,-99.99,,,-99.99,,2013-04-13 23:33:00,
2013-04-13 13:43:00,83.0,-99.9,29.91,ESE,103,17.0,23.0,-999,-99.99,,,-99.99,,2013-04-13 23:43:00,
2013-04-13 13:53:00,-999.0,-99.9,29.91,ESE,106,12.0,22.0,-999,-99.99,,,-99.99,,2013-04-13 23:53:00,
2013-04-13 14:03:00,86.0,-99.9,29.90,ESE,112,11.0,18.0,-999,-99.99,,,-99.99,,2013-04-14 00:03:00,
2013-04-13 14:12:00,87.0,-99.9,29.90,ESE,123,14.0,19.0,-999,-99.99,,,-99.99,,2013-04-14 00:12:00,
2013-04-13 14:22:00,85.0,-99.9,29.89,SE,129,14.0,23.0,-999,-99.99,,,-99.99,,2013-04-14 00:22:00,
2013-04-13 14:32:00,85.0,-99.9,29.90,SE,133,11.0,18.0,-999,-99.99,,,-99.99,,2013-04-14 00:32:00,
2013-04-13 14:42:00,83.0,-99.9,29.90,ESE,116,16.0,21.0,-999,-99.99,,,-99.99,,2013-04-14 00:42:00,
2013-04-13 14:52:00,81.0,-99.9,29.90,SE,127,14.0,19.0,-999,-99.99,,,-99.99,,2013-04-14 00:52:00,
2013-04-13 15:02:00,80.0,-99.9,29.90,SE,128,12.0,21.0,-999,-99.99,,,-99.99,,2013-04-14 01:02:00,
2013-04-13 15:13:00,79.0,-99.9,29.90,ESE,122,13.0,22.0,-999,-99.99,,,-99.99,,2013-04-14 01:13:00,
2013-04-13 15:23:00,79.0,-99.9,29.89,ESE,123,13.0,20.0,-999,-99.99,,,-99.99,,2013-04-14 01:23:00,
2013-04-13 15:33:00,81.0,-99.9,29.89,SE,131,14.0,22.0,-999,-99.99,,,-99.99,,2013-04-14 01:33:00,
2013-04-13 15:43:00,82.0,-99.9,29.89,SE,136,19.0,26.0,-999,-99.99,,,-99.99,,2013-04-14 01:43:00,
2013-04-13 15:53:00,81.0,-99.9,29.89,SE,141,13.0,21.0,-999,-99.99,,,-99.99,,2013-04-14 01:53:00,
2013-04-13 16:03:00,80.0,-99.9,29.89,SE,125,12.0,17.0,-999,-99.99,,,-99.99,,2013-04-14 02:03:00,
2013-04-13 16:13:00,80.0,-99.9,29.88,SE,131,13.0,17.0,-999,-99.99,,,-99.99,,2013-04-14 02:13:00,
2013-04-13 16:22:00,83.0,-99.9,29.88,ESE,123,13.0,18.0,-999,-99.99,,,-99.99,,2013-04-14 02:22:00,
2013-04-13 16:33:00,83.0,-99.9,29.88,SE,139,14.0,18.0,-999,-99.99,,,-99.99,,2013-04-14 02:33:00,
2013-04-13 16:43:00,84.0,-99.9,29.88,SE,140,13.0,19.0,-999,-99.99,,,-99.99,,2013-04-14 02:43:00,
2013-04-13 16:53:00,82.0,-99.9,29.88,SSE,156,6.0,18.0,-999,-99.99,,,-99.99,,2013-04-14 02:53:00,
2013-04-13 17:03:00,82.0,-99.9,29.88,SSE,152,10.0,19.0,-999,-99.99,,,-99.99,,2013-04-14 03:03:00,
2013-04-13 17:13:00,82.0,-99.9,29.88,SSE,163,13.0,18.0,-999,-99.99,,,-99.99,,2013-04-14 03:13:00,
2013-04-13 17:22:00,82.0,-99.9,29.88,SSE,162,11.0,17.0,-999,-99.99,,,-99.99,,2013-04-14 03:22:00,
2013-04-13 17:33:00,-999.0,-99.9,29.89,SSE,154,11.0,15.0,-999,-99.99,,,-99.99,,2013-04-14 03:33:00,
2013-04-13 17:43:00,82.0,-99.9,29.89,SSE,154,11.0,15.0,-999,-99.99,,,-99.99,,2013-04-14 03:43:00,
2013-04-13 17:53:00,81.0,-99.9,29.90,SSE,156,9.0,14.0,-999,-99.99,,,-99.99,,2013-04-14 03:53:00,
2013-04-13 18:03:00,-999.0,-99.9,29.90,SE,141,11.0,19.0,-999,-99.99,,,-99.99,,2013-04-14 04:03:00,
2013-04-13 18:13:00,-999.0,-99.9,29.91,SSE,152,8.0,13.0,-999,-99.99,,,-99.99,,2013-04-14 04:13:00,
2013-04-13 18:23:00,-999.0,-99.9,29.92,SSE,152,9.0,13.0,-999,-99.99,,,-99.99,,2013-04-14 04:23:00,
2013-04-13 18:33:00,-999.0,-99.9,29.93,SE,135,5.0,10.0,-999,-99.99,,,-99.99,,2013-04-14 04:33:00,
2013-04-13 18:43:00,-999.0,-99.9,29.93,SE,132,7.0,9.0,-999,-99.99,,,-99.99,,2013-04-14 04:43:00,
2013-04-13 18:53:00,-999.0,-99.9,29.94,SSE,154,7.0,11.0,-999,-99.99,,,-99.99,,2013-04-14 04:53:00,
2013-04-13 19:03:00,-999.0,-99.9,29.95,ESE,113,6.0,7.0,-999,-99.99,,,-99.99,,2013-04-14 05:03:00,
2013-04-13 19:12:00,-999.0,-99.9,29.95,ESE,114,6.0,8.0,-999,-99.99,,,-99.99,,2013-04-14 05:12:00,
2013-04-13 19:23:00,-999.0,-99.9,29.95,ESE,116,6.0,8.0,-999,-99.99,,,-99.99,,2013-04-14 05:23:00,
2013-04-13 19:32:00,-999.0,-99.9,29.94,SE,146,7.0,9.0,-999,-99.99,,,-99.99,,2013-04-14 05:32:00,
2013-04-13 19:43:00,-999.0,-99.9,29.94,SSE,154,7.0,10.0,-999,-99.99,,,-99.99,,2013-04-14 05:43:00,
2013-04-13 19:53:00,-999.0,-99.9,29.95,SSE,158,5.0,9.0,-999,-99.99,,,-99.99,,2013-04-14 05:53:00,
2013-04-13 20:02:00,-999.0,-99.9,29.96,SSE,153,4.0,5.0,-999,-99.99,,,-99.99,,2013-04-14 06:02:00,
2013-04-13 20:12:00,-999.0,-99.9,29.96,SSE,157,3.0,4.0,-999,-99.99,,,-99.99,,2013-04-14 06:12:00,
2013-04-13 20:22:00,-999.0,-99.9,29.96,SSE,148,3.0,5.0,-999,-99.99,,,-99.99,,2013-04-14 06:22:00,
2013-04-13 20:32:00,-999.0,-99.9,29.96,SSE,149,2.0,5.0,-999,-99.99,,,-99.99,,2013-04-14 06:32:00,
2013-04-13 20:42:00,-999.0,-99.9,29.97,SSE,154,3.0,5.0,-999,-99.99,,,-99.99,,2013-04-14 06:42:00,
2013-04-13 20:53:00,-999.0,-99.9,29.98,SSE,168,3.0,5.0,-999,-99.99,,,-99.99,,2013-04-14 06:53:00,
2013-04-13 21:03:00,-999.0,-99.9,29.98,South,183,3.0,4.0,-999,-99.99,,,-99.99,,2013-04-14 07:03:00,
2013-04-13 21:12:00,-999.0,-99.9,29.98,South,184,2.0,4.0,-999,-99.99,,,-99.99,,2013-04-14 07:12:00,
2013-04-13 21:23:00,-999.0,-99.9,29.98,South,181,3.0,4.0,-999,-99.99,,,-99.99,,2013-04-14 07:23:00,
2013-04-13 21:33:00,-999.0,-99.9,29.98,South,183,5.0,7.0,-999,-99.99,,,-99.99,,2013-04-14 07:33:00,
2013-04-13 21:42:00,-999.0,-99.9,29.98,South,180,5.0,7.0,-999,-99.99,,,-99.99,,2013-04-14 07:42:00,
2013-04-13 21:53:00,74.0,-99.9,29.98,South,183,6.0,6.0,-999,-99.99,,,-99.99,,2013-04-14 07:53:00,
2013-04-13 22:03:00,74.0,-99.9,29.99,SSW,213,5.0,6.0,-999,-99.99,,,-99.99,,2013-04-14 08:03:00,
2013-04-13 22:13:00,-999.0,-99.9,29.99,SSW,210,3.0,5.0,-999,-99.99,,,-99.99,,2013-04-14 08:13:00,
2013-04-13 22:23:00,73.0,-99.9,30.00,SSW,211,4.0,5.0,-999,-99.99,,,-99.99,,2013-04-14 08:23:00,
2013-04-13 22:33:00,73.0,-99.9,30.00,SSW,200,4.0,5.0,-999,-99.99,,,-99.99,,2013-04-14 08:33:00,
2013-04-13 22:43:00,73.0,-99.9,30.00,SSW,200,5.0,6.0,-999,-99.99,,,-99.99,,2013-04-14 08:43:00,
2013-04-13 22:52:00,73.0,-99.9,30.00,SSW,196,6.0,7.0,-999,-99.99,,,-99.99,,2013-04-14 08:52:00,
2013-04-13 23:03:00,73.0,-99.9,30.00,SSW,205,5.0,6.0,-999,-99.99,,,-99.99,,2013-04-14 09:03:00,
2013-04-13 23:12:00,73.0,-99.9,30.00,SW,220,4.0,6.0,-999,-99.99,,,-99.99,,2013-04-14 09:12:00,
2013-04-13 23:22:00,73.0,-99.9,30.00,SSW,212,4.0,5.0,-999,-99.99,,,-99.99,,2013-04-14 09:22:00,
2013-04-13 23:33:00,73.0,-99.9,29.99,South,186,4.0,6.0,-999,-99.99,,,-99.99,,2013-04-14 09:33:00,
2013-04-13 23:43:00,73.0,-99.9,29.99,South,186,4.0,6.0,-999,-99.99,,,-99.99,,2013-04-14 09:43:00,
2013-04-13 23:54:00,73.0,-99.9,29.99,SSW,192,5.0,6.0,-999,-99.99,,,-99.99,,2013-04-14 09:54:00,